Location: Perugia
(43.1330°N, 12.3670°E)
Time: 09:42:51
(UTC+02:00)

ISS - Visible Passes

Search period start: 08 May 2021 00:00
Search period end: 18 May 2021 00:00
Orbit: 418 x 421 km, 51.6° (Epoch: 08 May)

Date Brightness Start Highest point End Pass type
(mag) Time Alt. Az. Time Alt. Az. Time Alt. Az.
08 May -1.7 02:49:24 26° N 02:49:24 26° N 02:52:05 10° NE visible
08 May -1.1 04:24:15 10° NW 04:26:46 19° N 04:29:17 10° NE visible
09 May -1.0 02:03:27 19° NNE 02:03:27 19° NNE 02:04:42 10° NE visible
09 May -1.1 03:36:37 10° NW 03:39:08 19° N 03:41:37 10° NE visible
09 May -1.6 05:13:42 10° NW 05:16:42 28° NNE 05:19:41 10° E visible
10 May -1.3 02:50:22 17° NNW 02:51:29 20° N 02:54:03 10° NE visible
10 May -1.3 04:26:19 10° NW 04:29:07 23° NNE 04:31:54 10° ENE visible
11 May -1.2 02:04:21 21° N 02:04:21 21° N 02:06:35 10° NE visible
11 May -1.1 03:38:51 10° NW 03:41:30 20° N 03:44:07 10° ENE visible
11 May -2.9 05:15:31 10° NW 05:18:51 53° NNE 05:22:10 10° ESE visible
12 May -0.8 01:18:16 15° NNE 01:18:16 15° NNE 01:19:10 10° NE visible
12 May -1.0 02:51:20 10° NW 02:53:51 19° N 02:56:22 10° NE visible
12 May -2.2 04:28:09 10° NW 04:31:20 37° NNE 04:34:31 10° E visible
13 May -1.0 02:05:02 16° NNW 02:06:12 19° N 02:08:42 10° NE visible
13 May -1.6 03:40:47 10° NW 03:43:46 28° NNE 03:46:46 10° E visible
14 May -1.0 01:18:38 20° N 01:18:38 20° N 01:21:08 10° NE visible
14 May -1.3 02:53:23 10° NW 02:56:11 23° NNE 02:58:59 10° ENE visible
14 May -3.7 04:29:58 10° NW 04:33:22 84° NNE 04:36:45 10° ESE visible
14 May -2.1 21:15:02 10° S 21:17:12 16° SE 21:19:22 10° E visible
14 May -3.5 22:50:19 10° WSW 22:53:40 69° NNW 22:55:40 22° NE visible
15 May -1.2 00:28:13 10° WNW 00:30:55 22° NNW 00:33:38 10° NE visible
15 May -1.1 02:05:56 10° NW 02:08:34 20° N 02:11:11 10° ENE visible
15 May -3.0 03:42:35 10° NW 03:45:55 54° NNE 03:49:13 10° ESE visible
15 May -3.9 22:02:53 10° SW 22:06:13 74° SE 22:09:36 10° ENE visible
15 May -1.5 23:40:25 10° WNW 23:43:19 26° NNW 23:46:13 10° NE visible
16 May -0.9 01:18:24 10° NW 01:20:55 19° N 01:23:26 10° NE visible
16 May -2.3 02:55:12 10° NW 02:58:24 37° NNE 03:01:34 10° E visible
16 May -3.2 04:32:05 10° WNW 04:35:11 35° SW 04:38:18 10° SSE visible
16 May -3.4 21:15:38 10° SSW 21:18:50 44° SE 21:22:04 10° ENE visible
16 May -1.9 22:52:38 10° W 22:55:44 33° NNW 22:58:50 10° NE visible
17 May -0.9 00:30:46 10° NW 00:33:16 19° N 00:35:46 10° NE visible
17 May -1.7 02:07:50 10° NW 02:10:50 29° NNE 02:13:50 10° E visible
17 May -3.8 03:45:05 14° WNW 03:47:50 59° SW 03:51:09 10° SE visible
17 May -2.6 22:04:57 10° W 22:08:11 45° NNW 22:11:28 10° NE visible
17 May -1.0 23:43:03 10° NW 23:45:36 20° N 23:48:10 10° NE visible
